Location: Wellington Circle
(40.6722°N, 111.8380°W)
Time: 06:30:43
(UTC+00:00)

Daily predictions for brighter satellites

Satellite Brightness Start Highest point End
(mag) Time Altitude Azimuth Time Altitude Azimuth Time Altitude Azimuth
Cosmos 2056 Rocket 3.5 12:02:26 19° SSW 12:06:22 87° ESE 12:11:47 10° NNE
Cosmos 1943 Rocket 3.6 12:09:39 21° SSW 12:09:39 21° SSW 12:11:42 10° S
Cosmos 2123 Rocket 4.5 12:08:34 39° NW 12:08:34 39° NW 12:12:54 10° N
ARGOS 4.4 12:04:59 10° N 12:07:38 27° NNW 12:07:38 27° NNW
Cosmos 1954 Rocket 4.1 12:08:49 23° NNW 12:12:04 72° ENE 12:17:11 10° SSE
Cosmos 2016 Rocket 4.0 12:09:39 10° NNW 12:15:52 57° W 12:22:00 10° SSW
Cosmos 2369 Rocket 3.7 12:11:34 10° N 12:16:44 34° ENE 12:21:53 10° ESE
USA 229 DEB 3.7 12:12:04 10° SSW 12:17:46 68° ESE 12:24:08 10° NE
Cosmos 1782 Rocket 4.1 12:19:10 41° SSW 12:19:10 41° SSW 12:22:11 10° S
USA 229 3.7 12:12:19 10° SSW 12:18:00 67° ESE 12:24:21 10° NE
IRS-1D 3.6 12:17:31 10° NNE 12:22:27 71° ESE 12:27:21 10° S
Cosmos 1869 3.2 12:21:46 33° N 12:23:08 66° E 12:26:37 10° SSE
Helios 1A Rocket 4.0 12:20:46 10° SE 12:23:51 34° ENE 12:26:57 10° N
Iridium 4 Rocket 4.4 12:27:17 23° SSW 12:27:17 23° SSW 12:29:00 10° SSW
USA 267 3.4 12:19:11 10° NE 12:25:30 53° NW 12:28:15 33° W
Cosmos 1371 Rocket 3.9 12:21:33 15° SSW 12:25:53 66° WNW 12:31:12 10° NNE
Cosmos 1812 3.4 12:25:46 22° NNE 12:27:12 38° E 12:29:55 10° SSE
Cosmos 371 Rocket 3.3 12:24:07 18° NNW 12:27:47 79° ENE 12:32:37 10° SSE
FengYun 1-2 T 4.1 12:25:21 10° N 12:30:56 74° WNW 12:36:32 10° SSW
Cosmos 304 Rocket 3.6 12:31:43 19° NNW 12:35:13 84° WSW 12:39:58 10° SSE
CZ-4 R/B 3.8 12:31:36 10° NNE 12:36:27 87° ESE 12:41:10 10° SSW
ATLAS 3B R/B 2.9 12:31:13 10° SSW 12:38:40 86° NW 12:46:34 10° NNE
Cosmos 1110 Rocket 4.4 12:36:37 10° S 12:41:50 67° ESE 12:47:06 10° NNE
Cosmos 1378 Rocket 3.6 12:38:17 10° S 12:42:32 76° E 12:46:49 10° N
Meteor 1-21 Rocket 4.2 12:37:50 10° S 12:43:36 88° E 12:49:17 10° N
CENTAUR R/B 3.8 12:36:03 10° NNW 12:44:23 60° NE 12:53:42 10° SE
USA 306 4.3 12:47:11 15° N 12:47:11 15° N 12:49:05 10° NNE
Cosmos 2242 Rocket 3.5 12:42:38 10° SSW 12:46:56 58° W 12:51:19 10° N
NOSS 7 (E) 4.2 12:46:40 38° NW 12:47:45 77° WSW 12:51:24 10° SSE
NOAA 12 4.0 12:45:44 10° N 12:51:04 77° WNW 12:56:22 10° SSW
Cosmos 1656 Rocket 3.7 12:47:04 11° NNW 12:52:25 66° WSW 12:58:00 10° S
In-Cosmos 22 Rocket 4.3 12:51:51 10° SSW 12:57:35 60° WNW 13:03:20 10° N
USA 234 3.3 12:53:42 10° SE 13:00:16 86° NE 13:06:32 12° NW
Cosmos 2251 Rocket 4.4 12:59:20 20° WNW 13:01:40 27° W 13:06:05 10° SSW
Cosmos 1891 Rocket 4.5 13:02:04 10° NNW 13:08:19 66° W 13:14:24 10° S
SL-16 R/B 2.6 13:03:07 10° SW 13:08:27 41° WNW 13:13:49 10° N
Cosmos 1452 Rocket 3.5 13:10:12 10° SSW 13:15:26 84° WNW 13:20:42 10° NNE
CZ-2C R/B 4.3 13:15:47 10° NW 13:16:47 12° NW 13:16:47 12° NW
Aureole 3 Rocket 4.3 13:15:47 10° NNW 13:21:08 49° W 13:28:25 10° SSW
Cosmos 1850 Rocket 4.0 13:18:45 10° NNW 13:23:56 89° ENE 13:29:06 10° SSE
Cosmos 1331 Rocket 4.2 13:23:52 10° SW 13:28:57 50° WNW 13:34:03 10° N
Cosmos 1464 Rocket 3.9 13:24:36 10° NNW 13:30:43 70° W 13:36:46 10° S
Meteor 2-1 Rocket 4.5 13:25:44 10° N 13:31:40 82° E 13:37:25 10° S
Okean 2 Rocket 3.0 13:27:46 10° NNW 13:32:06 68° W 13:36:26 10° S
SJ 16-02 2.8 13:31:20 10° WNW 13:34:00 16° W 13:36:40 10° SW
NOSS 2-2 (C) 4.3 13:30:43 10° NNW 13:34:47 59° NE 13:40:29 10° SE
COSMO-SKYMED 1 3.1 13:31:10 10° SSW 13:34:54 34° W 13:38:41 10° NNW
SMAP 3.8 13:32:24 10° NNE 13:37:00 59° E 13:41:35 10° S
Cosmos 2034 Rocket 4.1 13:36:08 10° N 13:42:30 86° W 13:48:52 10° S
Cosmos 2263 4.3 13:39:17 10° NNW 13:45:00 64° WSW 13:50:40 10° S
BREEZE-M DEB (TANK) 3.9 13:44:59 10° NW 13:46:21 13° NNW 13:47:27 10° NNE
Cosmos 1025 Rocket 3.5 13:42:23 10° SSW 13:46:28 40° WNW 13:50:36 10° N
CBERS-1 4.0 13:41:25 10° N 13:46:29 65° WNW 13:51:31 10° SSW
Lacrosse 5 rocket 2.3 13:46:57 10° NNW 13:49:59 30° NE 13:52:56 10° ESE
Cosmos 1484 Rocket 3.4 13:47:08 10° N 13:50:13 29° WNW 13:53:17 10° SW
